Zurück zum Katalog

TITAN 3C TRANSTAGE R/B

AktivMEO
NORAD 3292·ROCKET BODY·🇺🇸 United States

Gestartet Jun 13, 1968 von Cape Canaveral Space Force Station

Loading…

Nächste Überflüge (nächste 24 Stunden)

TLE

AktuellSource: Space-Track

Epoche: Sep 14, 2026, 12:23 UTC

1 03292U 68050J   26257.51620199 -.00000228  00000-0  00000-0 0  9993
2 03292   7.8133  51.9138 0175110   9.5993 180.1497  1.05594990 47448

Verfolge TITAN 3C TRANSTAGE R/B in Echtzeit mit AllMySat

Download on the App Store